Location: Passo di Treia
(43.2833°N, 13.3333°E)
Time: 07:38:49
(UTC+00:00)

Cosmos 2369 Rocket - Pass Details

Date: 09 December 2019
Orbit: 828 x 853 km, 71.0° (Epoch: 21 January)

Event Time Altitude Azimuth Distance (km) Brightness Sun altitude
Rises 17:34:22 0° 343° (NNW) 3,389 5.4 -21.7°
Reaches altitude 10° 17:37:11 10° 355° (N) 2,455 4.5 -22.2°
Enters shadow 17:39:25 20° 14° (NNE) 1,858 3.7 -22.6°
